Regional Weather Roundup
Issued by NWS Charleston, WV

Home | Current Version | Previous Version | Text Only | Print | Product List | Glossary Off
Versions: 1 2 3 4 5 6 7 8 9 10 11 12 13 14 15 16 17 18 19 20 21 22 23 24 25 26 27 28 29 30 31 32 33 34 35 36 37 38 39 40 41 42 43 44 45 46 47 48 49 50

000
ASUS41 KRLX 252210
RWRRLX
West Virginia Regional Weather Roundup
National Weather Service Charleston WV
500 PM EST THU DEC 25 2014

Note: "fair" indicates few or no clouds below 12,000 feet with no
significant weather and/or obstructions to visibility.

WVZ003-252300-
Northern Panhandle of West Virginia

CITY           SKY/WX    TMP DP  RH WIND       PRES   REMARKS
WHEELING       CLOUDY    38  29  70 W9        30.12R
$$

WVZ009-252300-
Northwest West Virginia

CITY           SKY/WX    TMP DP  RH WIND       PRES   REMARKS
PARKERSBURG    CLOUDY    42  30  62 W9        30.18R
$$

WVZ006-252300-
Western West Virginia

CITY           SKY/WX    TMP DP  RH WIND       PRES   REMARKS
HUNTINGTON     MOCLDY    40  30  67 SW8       30.18R
$$

WVZ015-252300-
West Central West Virginia

CITY           SKY/WX    TMP DP  RH WIND       PRES   REMARKS
CHARLESTON     MOCLDY    42  31  64 VRB3      30.16R
$$

WVZ022-031-252300-
North Central West Virginia

CITY           SKY/WX    TMP DP  RH WIND       PRES   REMARKS
CLARKSBURG     CLOUDY    40  31  70 SW8       30.13R
MORGANTOWN     CLOUDY    40  29  64 VRB6      30.13R
$$

WVZ025-035-042-045-252300-
Southern West Virginia

CITY           SKY/WX    TMP DP  RH WIND       PRES   REMARKS
BECKLEY        PTCLDY    38  29  70 NW5       30.10F
LOGAN          MOCLDY    41  32  70 VRB3      30.14R
BLUEFIELD      CLEAR     40  26  57 NW7       30.11S
LEWISBURG      CLEAR     40  29  64 NW3       30.11S
$$

WVZ047-252300-
Northern Mountains of West Virginia

CITY           SKY/WX    TMP DP  RH WIND       PRES   REMARKS
ELKINS         CLOUDY    37  30  75 VRB6      30.12S
$$

WVZ052-252300-
Eastern Panhandle of West Virginia

CITY           SKY/WX    TMP DP  RH WIND       PRES   REMARKS
MARTINSBURG    PTCLDY    46  26  45 W14G25    30.09R
PETERSBURG     PTCLDY    42  27  55 W9        30.12S
$$


USA.gov is the U.S. government's official web portal to all federal, state and local government web resources and services.